Flag for Norway Weather past 2 weeks in Kristiansand, Norway

Now
39 °F

Chilly.


Feels Like: 30 °F
Forecast: 40 / 42 °F
Wind: 16 mph from Northwest

Location: Kristiansand / Kjevik

Current Time: Jan 27, 2015 at 3:12:11 AM

Latest Report: Jan 27, 2015 at 2:50 AM


Visibility: N/A

Pressure: 29.80 "Hg

Humidity: 56%

Dew point: 25 °F

Location of KristiansandLocation

Historic Weather in Kristiansand — Graph

°F

Kristiansand temperature yesterday

Maximum temperature yesterday: 43 °F (at 3:20 PM)
Minimum temperature yesterday: 34 °F (at 10:50 AM)
Average temperature yesterday: 38 °F

Past Weeks' High & Low Weather Summary

 TemperatureHumidityPressure
High46 °F (Jan 12, 1:50 PM)100% (Jan 14, 9:50 AM)30.24 "Hg (Jan 14, 9:50 AM)
Low16 °F (Jan 23, 3:50 AM)61% (Jan 16, 10:20 PM)28.80 "Hg (Jan 16, 4:50 AM)
Average34 °F88%29.67 "Hg
* Reported Jan 12 1:20 AM — Jan 27 1:50 AM, Kristiansand, Weather by CustomWeather, © 2014

Note: Actual official high and low records may vary slightly from our data, if they occured in-between our weather recording intervals... More about our weather records

Advertising

Kristiansand weather history for previous 24 hours

 ConditionsComfort  
Time TempWeatherWind HumidityBarometerVisibility
1:50 AM
Jan 27
37 °FChilly.9 mph65%29.80 "HgN/A
1:20 AM37 °FChilly.10 mph65%29.80 "HgN/A
12:50 AM37 °FPassing clouds.8 mph65%29.80 "HgN/A
12:20 AM37 °FChilly.10 mph70%29.77 "HgN/A
11:50 PM
Jan 26
37 °FChilly.6 mph70%29.77 "HgN/A
11:20 PM37 °FPassing clouds.7 mph75%29.74 "HgN/A
10:50 PM37 °FPassing clouds.6 mph75%29.74 "HgN/A
9:50 PM34 °FClear.2 mph87%29.74 "Hg10 mi
9:20 PM37 °FPassing clouds.6 mph81%29.71 "HgN/A
8:50 PM34 °FClear.2 mph93%29.71 "Hg10 mi
8:20 PM36 °FClear.1 mph87%29.71 "Hg10 mi
7:50 PM34 °FClear.2 mph93%29.71 "Hg10 mi
7:20 PM36 °FClear.1 mph87%29.71 "Hg10 mi
6:50 PM37 °FClear.2 mph81%29.71 "Hg10 mi
6:20 PM36 °FPassing clouds.No wind93%29.71 "HgN/A
5:50 PM37 °FPassing clouds.2 mph87%29.68 "HgN/A
5:20 PM39 °FPassing clouds.5 mph81%29.68 "HgN/A
4:50 PM37 °FPassing clouds.3 mph87%29.68 "HgN/A
4:20 PM39 °FPassing clouds.3 mph81%29.68 "HgN/A
3:50 PM41 °FSunny.7 mph81%29.68 "Hg10 mi
3:20 PM43 °FPassing clouds.6 mph76%29.68 "HgN/A
2:50 PM41 °FSunny.5 mph87%29.68 "Hg10 mi
2:20 PM39 °FScattered clouds.3 mph93%29.68 "HgN/A
1:50 PM39 °FScattered clouds.1 mph93%29.68 "HgN/A
1:20 PM39 °FPartly sunny.5 mph93%29.71 "HgN/A
12:50 PM37 °FPartly sunny.2 mph100%29.71 "HgN/A
12:20 PM37 °FPartly sunny.2 mph100%29.71 "HgN/A
11:50 AM36 °FBroken clouds.3 mph100%29.71 "HgN/A
11:20 AM36 °FFog.6 mph100%29.71 "HgN/A
10:50 AM34 °FBroken clouds.1 mph100%29.71 "HgN/A
10:20 AM36 °FChilly.2 mph100%29.71 "HgN/A
9:50 AM36 °FFog.1 mph100%29.74 "Hg0 mi
9:20 AM36 °FFog.2 mph93%29.74 "Hg0 mi
8:50 AM37 °FFog.No wind93%29.74 "Hg0 mi
8:20 AM36 °FDrizzle. Fog.1 mph100%29.74 "Hg1 mi
7:50 AM39 °FPartly cloudy.No wind100%29.74 "Hg3 mi
7:20 AM39 °FChilly.3 mph100%29.77 "Hg4 mi
6:50 AM39 °FDrizzle. Low clouds.6 mph100%29.77 "Hg4 mi
6:20 AM39 °FDrizzle. Fog.7 mph100%29.77 "Hg4 mi
5:50 AM39 °FChilly.7 mph100%29.77 "Hg2 mi
5:20 AM39 °FFog.9 mph100%29.80 "Hg0 mi
4:50 AM39 °FFog.12 mph100%29.80 "Hg1 mi
4:20 AM39 °FLight rain. Mostly cloudy.12 mph100%29.83 "Hg1 mi
3:50 AM39 °FDrizzle. Low clouds.14 mph100%29.86 "Hg1 mi
3:20 AM39 °FFog.13 mph100%29.86 "Hg2 mi
Weather by CustomWeather, © 2014

See weather overviewHow to use our weather pages